Location: State Camp
(41.2367°N, 77.7828°W)
Time: 11:26:09
(UTC-05:00)

Hubble Space Telescope - Visible Passes

Search period start: 26 January 2015 00:00
Search period end: 05 February 2015 00:00
Orbit: 544 x 548 km, 28.5° (Epoch: 26 January)

Date Brightness Start Highest point End Pass type
(mag) Time Alt. Az. Time Alt. Az. Time Alt. Az.
29 Jan 3.5 19:54:12 10° SSW 19:54:35 11° SSW 19:54:35 11° SSW visible
30 Jan 3.3 19:45:58 10° SSW 19:47:08 13° SSW 19:47:08 13° SSW visible
31 Jan 3.4 17:58:28 10° S 17:59:28 11° SSE 18:00:31 10° SSE visible
31 Jan 3.2 19:37:50 10° SSW 19:39:42 14° S 19:39:42 14° S visible
01 Feb 3.1 19:29:47 10° SW 19:31:57 14° S 19:32:16 14° S visible
02 Feb 3.2 19:21:50 10° SW 19:23:50 13° S 19:24:51 12° S visible
03 Feb 3.3 19:14:00 10° SSW 19:15:42 12° S 19:17:21 10° SSE visible
04 Feb 3.5 19:06:26 10° SSW 19:07:33 11° SSW 19:08:38 10° S visible
